When you browse on this site, cookies collect data to enhance your experience and personalize the content and advertising you see.
Visit our Privacy Policy to learn more. By continuing to use the site, you agree to this use of cookies and data.
  • In Austria
  • List of Countries
  • For 7 days
  • Water Temperature
  • Weather Map
  • News
  • Weather Widgets
  • user-avatar
    Login

    Hourly Weather Zastav'je

    Today, 17 September, Tuesday

    Time Temperature Precipitation Wind Pressure Humidity
    00:00 +11°C° 0 mm 4 mps 740 mmHg 87%
    01:00 +11°C° 0 mm 4 mps 740 mmHg 87%
    02:00 +10°C° 0 mm 3 mps 739 mmHg 86%
    03:00 +10°C° 0 mm 3 mps 739 mmHg 87%
    04:00 +9°C° 0 mm 2 mps 739 mmHg 88%
    05:00 +9°C° 0 mm 2 mps 739 mmHg 88%
    06:00 +9°C° 0 mm 2 mps 739 mmHg 84%
    07:00 +10°C° 0 mm 3 mps 739 mmHg 81%
    08:00 +11°C° 0 mm 3 mps 739 mmHg 74%
    09:00 +12°C° 0 mm 4 mps 739 mmHg 67%
    10:00 +14°C° 0 mm 4 mps 739 mmHg 60%
    11:00 +15°C° 0 mm 5 mps 739 mmHg 54%
    12:00 +16°C° 0 mm 5 mps 738 mmHg 52%
    13:00 +16°C° 0 mm 5 mps 738 mmHg 51%
    14:00 +17°C° 0 mm 6 mps 737 mmHg 49%
    15:00 +16°C° 0 mm 6 mps 737 mmHg 51%
    16:00 +16°C° 0 mm 6 mps 736 mmHg 54%
    17:00 +15°C° 0 mm 5 mps 736 mmHg 56%
    18:00 +14°C° 0 mm 5 mps 736 mmHg 59%
    19:00 +13°C° 0 mm 4 mps 736 mmHg 62%
    20:00 +12°C° 0 mm 3 mps 736 mmHg 65%
    21:00 +12°C° 0 mm 4 mps 735 mmHg 66%
    22:00 +12°C° 0 mm 4 mps 735 mmHg 67%
    23:00 +12°C° 0 mm 4 mps 734 mmHg 67%

    Tomorrow, 18 September, Wednesday

    Time Temperature Precipitation Wind Pressure Humidity
    00:00 +10°C° 0.3 mm 5 mps 735 mmHg 72%
    01:00 +9°C° 0.3 mm 6 mps 735 mmHg 78%
    02:00 +8°C° 0.3 mm 7 mps 735 mmHg 83%
    03:00 +6°C° 0.1 mm 7 mps 735 mmHg 83%
    04:00 +5°C° 0.1 mm 8 mps 735 mmHg 84%
    05:00 +5°C° 0.1 mm 8 mps 736 mmHg 85%
    06:00 +5°C° 0 mm 8 mps 736 mmHg 82%
    07:00 +5°C° 0 mm 9 mps 737 mmHg 79%
    08:00 +5°C° 0 mm 9 mps 737 mmHg 77%
    09:00 +6°C° 0.1 mm 10 mps 738 mmHg 75%
    10:00 +6°C° 0.1 mm 10 mps 738 mmHg 74%
    11:00 +6°C° 0.1 mm 10 mps 739 mmHg 72%
    12:00 +7°C° 0 mm 10 mps 739 mmHg 68%
    13:00 +8°C° 0 mm 10 mps 740 mmHg 65%
    14:00 +9°C° 0 mm 10 mps 740 mmHg 61%
    15:00 +9°C° 0 mm 10 mps 741 mmHg 60%
    16:00 +10°C° 0 mm 9 mps 741 mmHg 60%
    17:00 +10°C° 0 mm 8 mps 742 mmHg 59%
    18:00 +9°C° 0 mm 7 mps 742 mmHg 63%
    19:00 +8°C° 0 mm 6 mps 742 mmHg 66%
    20:00 +7°C° 0 mm 5 mps 743 mmHg 69%
    21:00 +7°C° 0 mm 5 mps 743 mmHg 72%
    22:00 +7°C° 0 mm 5 mps 743 mmHg 75%
    23:00 +6°C° 0 mm 5 mps 744 mmHg 77%

    Day after tomorrow, 19 September, Thursday

    Time Temperature Precipitation Wind Pressure Humidity
    00:00 +6°C° 0 mm 5 mps 744 mmHg 78%
    01:00 +6°C° 0 mm 5 mps 744 mmHg 79%
    02:00 +5°C° 0 mm 5 mps 744 mmHg 79%
    03:00 +5°C° 0 mm 4 mps 744 mmHg 82%
    04:00 +4°C° 0 mm 4 mps 744 mmHg 85%
    05:00 +4°C° 0 mm 4 mps 744 mmHg 88%
    06:00 +5°C° 0 mm 4 mps 745 mmHg 85%
    07:00 +6°C° 0 mm 5 mps 745 mmHg 81%
    08:00 +7°C° 0 mm 5 mps 745 mmHg 77%
    09:00 +8°C° 0.1 mm 5 mps 745 mmHg 75%
    10:00 +9°C° 0.1 mm 5 mps 745 mmHg 73%
    11:00 +10°C° 0.1 mm 5 mps 746 mmHg 70%
    12:00 +12°C° 0.3 mm 5 mps 745 mmHg 66%
    13:00 +13°C° 0.3 mm 5 mps 745 mmHg 61%
    14:00 +14°C° 0.3 mm 5 mps 745 mmHg 57%
    15:00 +13°C° 0.4 mm 5 mps 745 mmHg 60%
    16:00 +12°C° 0.4 mm 5 mps 745 mmHg 64%
    17:00 +12°C° 0.4 mm 5 mps 745 mmHg 68%
    18:00 +10°C° 0.2 mm 4 mps 745 mmHg 73%
    19:00 +8°C° 0.2 mm 4 mps 745 mmHg 79%
    20:00 +8°C° 0.2 mm 3 mps 746 mmHg 84%
    21:00 +7°C° 0.1 mm 3 mps 746 mmHg 85%
    22:00 +6°C° 0.1 mm 4 mps 746 mmHg 86%
    23:00 +6°C° 0.1 mm 4 mps 745 mmHg 87%

    20 September, Friday

    Time Temperature Precipitation Wind Pressure Humidity
    00:00 +5°C° 0.1 mm 4 mps 745 mmHg 89%
    01:00 +5°C° 0.1 mm 4 mps 745 mmHg 91%
    02:00 +5°C° 0.1 mm 4 mps 745 mmHg 93%
    03:00 +5°C° 0 mm 4 mps 745 mmHg 94%
    04:00 +4°C° 0 mm 4 mps 745 mmHg 95%
    05:00 +4°C° 0 mm 4 mps 745 mmHg 96%
    06:00 +4°C° 0 mm 4 mps 745 mmHg 94%
    07:00 +5°C° 0 mm 5 mps 746 mmHg 91%
    08:00 +5°C° 0 mm 5 mps 746 mmHg 89%
    09:00 +7°C° 0.2 mm 5 mps 746 mmHg 80%
    10:00 +8°C° 0.2 mm 6 mps 747 mmHg 72%
    11:00 +9°C° 0.2 mm 6 mps 747 mmHg 64%
    12:00 +10°C° 0.2 mm 6 mps 747 mmHg 59%
    13:00 +11°C° 0.2 mm 6 mps 746 mmHg 54%
    14:00 +11°C° 0.2 mm 6 mps 746 mmHg 49%
    15:00 +11°C° 0.1 mm 6 mps 746 mmHg 53%
    16:00 +10°C° 0.1 mm 6 mps 746 mmHg 56%
    17:00 +9°C° 0.1 mm 5 mps 746 mmHg 60%
    18:00 +8°C° 0 mm 5 mps 747 mmHg 68%
    19:00 +6°C° 0 mm 4 mps 747 mmHg 75%
    20:00 +5°C° 0 mm 3 mps 748 mmHg 82%
    21:00 +4°C° 0 mm 3 mps 748 mmHg 83%
    22:00 +4°C° 0 mm 3 mps 748 mmHg 85%
    23:00 +3°C° 0 mm 3 mps 748 mmHg 86%

    21 September, Saturday

    Time Temperature Precipitation Wind Pressure Humidity
    00:00 +3°C° 0 mm 3 mps 749 mmHg 87%
    01:00 +4°C° 0 mm 2 mps 749 mmHg 88%
    02:00 +3°C° 0 mm 2 mps 749 mmHg 90%
    03:00 +3°C° 0 mm 2 mps 749 mmHg 90%
    04:00 +3°C° 0 mm 2 mps 749 mmHg 90%
    05:00 +2°C° 0 mm 2 mps 750 mmHg 91%
    06:00 +3°C° 0 mm 2 mps 750 mmHg 86%
    07:00 +4°C° 0 mm 2 mps 750 mmHg 82%
    08:00 +5°C° 0 mm 2 mps 750 mmHg 77%
    09:00 +7°C° 0 mm 2 mps 750 mmHg 68%
    10:00 +9°C° 0 mm 3 mps 751 mmHg 58%
    11:00 +11°C° 0 mm 3 mps 751 mmHg 49%
    12:00 +12°C° 0 mm 3 mps 751 mmHg 47%
    13:00 +12°C° 0 mm 3 mps 751 mmHg 44%
    14:00 +13°C° 0 mm 3 mps 750 mmHg 42%
    15:00 +13°C° 0 mm 3 mps 750 mmHg 45%
    16:00 +14°C° 0 mm 2 mps 750 mmHg 47%
    17:00 +14°C° 0 mm 2 mps 750 mmHg 50%
    18:00 +12°C° 0 mm 2 mps 750 mmHg 55%
    19:00 +10°C° 0 mm 1 mps 750 mmHg 59%
    20:00 +8°C° 0 mm 1 mps 750 mmHg 64%
    21:00 +8°C° 0 mm 1 mps 750 mmHg 65%
    22:00 +8°C° 0 mm 1 mps 750 mmHg 65%
    23:00 +7°C° 0 mm 2 mps 750 mmHg 66%

    22 September, Sunday

    Time Temperature Precipitation Wind Pressure Humidity
    00:00 +6°C° 0 mm 2 mps 750 mmHg 67%
    01:00 +6°C° 0 mm 2 mps 750 mmHg 68%
    02:00 +6°C° 0 mm 2 mps 750 mmHg 69%
    03:00 +5°C° 0 mm 2 mps 749 mmHg 69%
    04:00 +5°C° 0 mm 2 mps 749 mmHg 68%
    05:00 +5°C° 0 mm 2 mps 749 mmHg 68%
    06:00 +6°C° 0 mm 2 mps 749 mmHg 65%
    07:00 +8°C° 0 mm 2 mps 749 mmHg 62%
    08:00 +9°C° 0 mm 2 mps 749 mmHg 59%
    09:00 +12°C° 0 mm 2 mps 748 mmHg 53%
    10:00 +14°C° 0 mm 2 mps 748 mmHg 48%
    11:00 +17°C° 0 mm 3 mps 748 mmHg 42%
    12:00 +18°C° 0 mm 3 mps 748 mmHg 41%
    13:00 +19°C° 0 mm 3 mps 747 mmHg 39%
    14:00 +20°C° 0 mm 3 mps 746 mmHg 38%
    15:00 +20°C° 0 mm 2 mps 746 mmHg 41%
    16:00 +19°C° 0 mm 2 mps 745 mmHg 45%
    17:00 +19°C° 0 mm 2 mps 745 mmHg 49%
    18:00 +17°C° 0 mm 2 mps 744 mmHg 51%
    19:00 +15°C° 0 mm 2 mps 744 mmHg 53%
    20:00 +12°C° 0 mm 3 mps 744 mmHg 56%
    21:00 +12°C° 0 mm 2 mps 743 mmHg 55%
    22:00 +12°C° 0 mm 2 mps 743 mmHg 54%
    23:00 +10°C° 0 mm 2 mps 743 mmHg 54%
    Show more